Weather History for Fremont, NE

Change the Weather History Date:

Sunday, September 8, 2013

  Actual Average Record
Temperature  
Mean Temperature 80 °F -  
Max Temperature 93 °F 82 °F 105 °F (1955)
Min Temperature 67 °F 57 °F 39 °F (1986)
Cooling Degree Days 15    
Growing Degree Days 30 (Base 50)    
Moisture  
Dew Point 71 °F    
Average Humidity 77    
Maximum Humidity 100    
Minimum Humidity 48    
Precipitation  
Precipitation 0.00 in - - ()
Sea Level Pressure  
Sea Level Pressure 29.88 in    
Wind  
Wind Speed 3 mph (ESE)    
Max Wind Speed 13 mph    
Max Gust Speed 18 mph    
Visibility 8 miles    
Events      
Averages and records for this station are not official NWS values.
T = Trace of Precipitation, MM = Missing Value Source: NWS Daily Summary

Daily Weather History Graph

Daily Weather History Graph

Search for Another Location

Airport:

Trip Planner

Search our weather history database for the weather conditions in past years. The results will help you decide how hot, cold, wet, or windy it might be!

Date:

Astronomy

Sep. 08, 2013 Rise Set
Actual Time 6:59 AM CDT 7:46 PM CDT
Civil Twilight 6:31 AM CDT 8:14 PM CDT
Nautical Twilight 5:58 AM CDT 8:48 PM CDT
Astronomical Twilight 5:23 AM CDT 9:22 PM CDT
Moon 10:21 AM CDT (9/8) 9:19 PM CDT (9/8)
Length of Visible Light 13h 43m
Length of Day
12h 47m
Waxing Crescent, 11% of the Moon is Illuminated
Sep 8
Waxing Crescent
Sep 12
First Quarter
Sep 19
Full
Sep 26
Last Quarter
Oct 4
New

Hourly Weather History & Observations

Time (CDT) Temp. Heat Index Dew Point Humidity Pressure Visibility Wind Dir Wind Speed Gust Speed Precip Events Conditions
12:15 AM 69.6 °F - 68.9 °F 98% 29.94 in 7.0 mi Calm Calm - N/A   Clear
12:35 AM 70.5 °F - 70.0 °F 98% 29.94 in 7.0 mi Calm Calm - N/A   Clear
12:55 AM 69.8 °F - 68.7 °F 96% 29.94 in 7.0 mi Calm Calm - N/A   Clear
1:15 AM 70.7 °F - 69.6 °F 96% 29.94 in 7.0 mi Calm Calm - N/A   Clear
1:35 AM 70.9 °F - 69.8 °F 96% 29.94 in 7.0 mi Calm Calm - N/A   Clear
1:55 AM 70.0 °F - 69.1 °F 97% 29.94 in 7.0 mi Calm Calm - N/A   Clear
2:15 AM 69.1 °F - 68.5 °F 98% 29.94 in 7.0 mi Calm Calm - N/A   Clear
2:35 AM 69.3 °F - 68.4 °F 97% 29.94 in 7.0 mi Calm Calm - N/A   Clear
2:55 AM 68.7 °F - 67.8 °F 97% 29.94 in 7.0 mi Calm Calm - N/A   Clear
3:15 AM 68.9 °F - 68.5 °F 99% 29.93 in 5.0 mi Calm Calm - N/A   Clear
3:35 AM 67.5 °F - 66.9 °F 98% 29.93 in 7.0 mi Calm Calm - N/A   Clear
3:55 AM 68.0 °F - 67.5 °F 98% 29.93 in 7.0 mi Calm Calm - N/A   Clear
4:15 AM 68.0 °F - 68.0 °F 100% 29.93 in 5.0 mi Calm Calm - N/A   Clear
4:35 AM 68.0 °F - 67.6 °F 99% 29.92 in 5.0 mi Calm Calm - N/A   Clear
4:55 AM 68.4 °F - 68.2 °F 99% 29.92 in 7.0 mi Calm Calm - N/A   Clear
5:15 AM 68.9 °F - 68.2 °F 98% 29.91 in 5.0 mi Calm Calm - N/A   Clear
5:35 AM 68.7 °F - 68.7 °F 100% 29.90 in 4.0 mi Calm Calm - N/A   Clear
5:55 AM 70.5 °F - 70.3 °F 99% 29.91 in 5.0 mi Calm Calm - N/A   Clear
6:15 AM 70.5 °F - 70.3 °F 99% 29.90 in 4.0 mi Calm Calm - N/A   Clear
6:35 AM 70.0 °F - 70.0 °F 100% 29.89 in 4.0 mi Calm Calm - N/A   Clear
6:55 AM 70.5 °F - 70.5 °F 100% 29.90 in 4.0 mi Calm Calm - N/A   Clear
7:15 AM 70.2 °F - 70.2 °F 100% 29.90 in 2.0 mi Calm Calm - N/A   Clear
7:35 AM 70.2 °F - 70.2 °F 100% 29.90 in 2.0 mi Calm Calm - N/A   Clear
7:55 AM 70.7 °F - 70.7 °F 100% 29.90 in 2.5 mi Calm Calm - N/A   Clear
8:15 AM 72.1 °F - 71.8 °F 99% 29.91 in 4.0 mi Calm Calm - N/A   Clear
8:35 AM 73.8 °F - 72.0 °F 94% 29.90 in 5.0 mi East 5.8 mph - N/A   Clear
8:55 AM 75.4 °F - 72.5 °F 91% 29.90 in 7.0 mi East 5.8 mph - N/A   Clear
9:15 AM 76.1 °F - 72.5 °F 89% 29.91 in 7.0 mi ENE 5.8 mph - N/A   Clear
9:35 AM 76.3 °F - 73.0 °F 90% 29.93 in 7.0 mi NE 3.5 mph - N/A   Clear
9:55 AM 78.4 °F - 73.2 °F 84% 29.93 in 10.0 mi NE 8.1 mph - N/A   Clear
10:15 AM 79.2 °F - 72.9 °F 81% 29.93 in 10.0 mi East 9.2 mph - N/A   Clear
10:35 AM 80.4 °F 84.8 °F 72.9 °F 78% 29.93 in 10.0 mi East 10.4 mph - N/A   Clear
10:55 AM 82.0 °F 87.4 °F 73.0 °F 74% 29.92 in 10.0 mi East 11.5 mph - N/A   Clear
11:15 AM 83.5 °F 89.4 °F 72.9 °F 70% 29.92 in 10.0 mi East 12.7 mph - N/A   Clear
11:35 AM 84.7 °F 91.0 °F 72.9 °F 67% 29.91 in 10.0 mi East 11.5 mph 18.4 mph N/A   Clear
11:55 AM 86.2 °F 93.4 °F 73.2 °F 65% 29.91 in 10.0 mi ESE 12.7 mph - N/A   Clear
12:15 PM 86.5 °F 93.8 °F 73.0 °F 64% 29.91 in 10.0 mi ESE 10.4 mph 16.1 mph N/A   Clear
12:35 PM 88.5 °F 96.8 °F 73.4 °F 61% 29.90 in 10.0 mi East 11.5 mph - N/A   Clear
12:55 PM 89.2 °F 97.9 °F 73.6 °F 60% 29.89 in 10.0 mi East 9.2 mph - N/A   Clear
1:15 PM 88.3 °F 96.4 °F 73.2 °F 61% 29.89 in 10.0 mi ESE 9.2 mph - N/A   Clear
1:35 PM 90.3 °F 98.7 °F 73.0 °F 57% 29.88 in 10.0 mi East 9.2 mph - N/A   Clear
1:55 PM 89.8 °F 97.0 °F 72.1 °F 56% 29.88 in 10.0 mi ESE 10.4 mph - N/A   Clear
2:15 PM 91.0 °F 98.7 °F 72.5 °F 54% 29.87 in 10.0 mi East 9.2 mph - N/A   Clear
2:35 PM 93.0 °F 100.7 °F 72.0 °F 50% 29.86 in 10.0 mi SE 9.2 mph - N/A   Clear
2:55 PM 92.7 °F 99.4 °F 71.2 °F 49% 29.86 in 10.0 mi East 9.2 mph - N/A   Clear
3:15 PM 92.8 °F 100.3 °F 71.6 °F 50% 29.85 in 10.0 mi East 8.1 mph - N/A   Clear
3:35 PM 93.4 °F 100.9 °F 71.8 °F 49% 29.85 in 10.0 mi East 8.1 mph - N/A   Clear
3:55 PM 92.7 °F 101.1 °F 72.5 °F 52% 29.84 in 10.0 mi SE 8.1 mph - N/A   Clear
4:15 PM 93.6 °F 101.3 °F 71.8 °F 49% 29.84 in 10.0 mi SE 8.1 mph - N/A   Clear
4:35 PM 93.7 °F 101.1 °F 71.4 °F 48% 29.84 in 10.0 mi SSE 9.2 mph - N/A   Clear
4:55 PM 93.2 °F 101.1 °F 72.0 °F 50% 29.83 in 10.0 mi SSE 11.5 mph - N/A   Clear
5:15 PM 92.8 °F 100.9 °F 72.3 °F 51% 29.82 in 10.0 mi ESE 9.2 mph - N/A   Clear
5:35 PM 93.0 °F 100.7 °F 72.1 °F 50% 29.82 in 10.0 mi ESE 10.4 mph - N/A   Clear
5:55 PM 92.3 °F 100.3 °F 72.5 °F 52% 29.82 in 10.0 mi SE 6.9 mph - N/A   Clear
6:15 PM 92.5 °F 99.6 °F 71.6 °F 50% 29.82 in 10.0 mi ESE 8.1 mph - N/A   Clear
6:35 PM 91.6 °F 98.8 °F 71.8 °F 52% 29.81 in 10.0 mi SE 8.1 mph - N/A   Clear
6:55 PM 90.9 °F 98.3 °F 72.0 °F 54% 29.81 in 10.0 mi SE 8.1 mph - N/A   Clear
7:15 PM 89.8 °F 97.0 °F 72.0 °F 56% 29.81 in 10.0 mi SE 5.8 mph - N/A   Clear
7:35 PM 87.6 °F 94.3 °F 72.3 °F 60% 29.81 in 10.0 mi ESE 3.5 mph - N/A   Clear
7:55 PM 85.6 °F 92.2 °F 72.5 °F 65% 29.81 in 10.0 mi SE 5.8 mph - N/A   Clear
8:15 PM 84.9 °F 91.1 °F 72.3 °F 66% 29.80 in 10.0 mi ESE 4.6 mph - N/A   Clear
8:35 PM 84.2 °F 90.3 °F 72.5 °F 68% 29.81 in 10.0 mi ESE 5.8 mph - N/A   Clear
8:55 PM 84.0 °F 90.2 °F 72.7 °F 69% 29.81 in 10.0 mi East 5.8 mph - N/A   Clear
9:15 PM 82.8 °F 88.2 °F 72.7 °F 71% 29.81 in 10.0 mi ESE 5.8 mph - N/A   Clear
9:35 PM 82.8 °F 88.2 °F 72.5 °F 71% 29.80 in 10.0 mi ESE 5.8 mph - N/A   Clear
9:55 PM 81.9 °F 86.8 °F 72.3 °F 73% 29.81 in 10.0 mi SE 6.9 mph - N/A   Clear
10:15 PM 81.5 °F 86.3 °F 72.5 °F 74% 29.80 in 10.0 mi SE 5.8 mph - N/A   Clear
10:35 PM 80.6 °F 84.9 °F 72.5 °F 76% 29.80 in 10.0 mi SE 5.8 mph - N/A   Clear
10:55 PM 80.8 °F 85.2 °F 72.7 °F 76% 29.80 in 10.0 mi SE 6.9 mph - N/A   Clear
11:15 PM 80.8 °F 85.2 °F 72.5 °F 76% 29.81 in 10.0 mi SE 5.8 mph - N/A   Clear
11:35 PM 79.7 °F - 72.1 °F 78% 29.80 in 10.0 mi SE 4.6 mph - N/A   Clear
11:55 PM 79.0 °F - 72.3 °F 80% 29.80 in 10.0 mi SE 5.8 mph - N/A   Clear